Weather History for KGNA - December, 2012

Change the Weather History Date:

Monday, December 10, 2012

  Actual Average (WUND) Record (WUND)
Temperature  
Mean Temperature 20 °F -  
Max Temperature 23 °F - - (-1)
Min Temperature 16 °F - - (-1)
Degree Days  
Heating Degree Days 46    
Moisture  
Dew Point 13 °F    
Average Humidity 74    
Maximum Humidity 82    
Minimum Humidity 68    
Precipitation  
Precipitation 0.03 in - - ()
Sea Level Pressure  
Sea Level Pressure 29.91 in    
Wind  
Wind Speed 7 mph (North)    
Max Wind Speed 13 mph    
Max Gust Speed 28 mph    
Averages and records for this station are not official NWS values.
T = Trace of Precipitation, MM = Missing Value Source: NWS Daily Summary

Daily Weather History Graph

Daily Weather History Graph

Search for Another Location

Airport or City:

Trip Planner

Search our weather history database for the weather conditions in past years. The results will help you decide how hot, cold, wet, or windy it might be!

Date:

Astronomy

Dec. 10, 2012 Rise Set
Actual Time 7:39 AM CST 4:09 PM CST
Civil Twilight 7:03 AM CST 4:45 PM CST
Nautical Twilight 6:24 AM CST 5:24 PM CST
Astronomical Twilight 5:46 AM CST 6:01 PM CST
Moon 4:14 AM CST (12/10) 2:05 PM CST (12/10)
Length of Visible Light 9h 41m
Length of Day
8h 29m
Waning Crescent, 10% of the Moon is Illuminated
Dec 10
Waning Crescent
Dec 13
New
Dec 19
First Quarter
Dec 28
Full
Jan 4
Last Quarter

Hourly Weather History & Observations

Time (CST) Temp. Windchill Dew Point Humidity Pressure Visibility Wind Dir Wind Speed Gust Speed Precip Events Conditions
12:56 AM 21.0 °F 10.6 °F 12.9 °F 71% 29.94 in - North 9.2 mph 27.6 mph N/A   Unknown
1:56 AM 21.0 °F 11.4 °F 12.0 °F 68% 29.93 in - North 8.1 mph 18.4 mph N/A   Unknown
2:56 AM 21.0 °F 8.6 °F 12.9 °F 71% 29.93 in - NE 12.7 mph 20.7 mph N/A   Unknown
3:56 AM 19.9 °F 11.1 °F 12.9 °F 74% 29.92 in - Variable 6.9 mph 20.7 mph N/A   Unknown
4:56 AM 18.0 °F 7.7 °F 10.0 °F 71% 29.92 in - North 8.1 mph 20.7 mph N/A   Unknown
5:56 AM 17.1 °F 5.8 °F 9.0 °F 71% 29.91 in - North 9.2 mph 17.3 mph N/A   Unknown
6:56 AM 16.0 °F 6.3 °F 8.1 °F 71% 29.93 in - North 6.9 mph 20.7 mph 0.01 in   Unknown
7:56 AM 17.1 °F 5.8 °F 8.1 °F 68% 29.93 in - NNW 9.2 mph 16.1 mph N/A   Unknown
8:56 AM 16.0 °F 2.3 °F 8.1 °F 71% 29.93 in - NNW 12.7 mph 19.6 mph N/A   Unknown
9:56 AM 17.1 °F 3.6 °F 9.0 °F 71% 29.94 in - NNW 12.7 mph 19.6 mph N/A   Unknown
10:56 AM 19.9 °F 13.4 °F 10.9 °F 68% 29.93 in - North 4.6 mph - N/A   Unknown
11:56 AM 21.9 °F - 12.9 °F 68% 29.92 in - Calm Calm - N/A   Unknown
12:56 PM 23.0 °F - 15.1 °F 72% 29.91 in - Calm Calm - N/A   Unknown
1:56 PM 21.9 °F 17.2 °F 16.0 °F 78% 29.90 in - NE 3.5 mph - N/A   Unknown
2:56 PM 23.0 °F 17.0 °F 16.0 °F 74% 29.90 in - ENE 4.6 mph - 0.01 in   Unknown
3:56 PM 23.0 °F - 17.1 °F 78% 29.90 in - Calm Calm - N/A   Unknown
4:56 PM 21.9 °F - 17.1 °F 82% 29.89 in - Calm Calm - 0.01 in   Unknown
5:56 PM 23.0 °F - 17.1 °F 78% 29.90 in - Calm Calm - N/A   Unknown
6:56 PM 23.0 °F 18.4 °F 16.0 °F 74% 29.90 in - North 3.5 mph - N/A   Unknown
7:56 PM 21.9 °F - 17.1 °F 82% 29.89 in - Calm Calm - N/A   Unknown
8:56 PM 21.0 °F 16.2 °F 16.0 °F 81% 29.88 in - NNW 3.5 mph - N/A   Unknown
9:56 PM 19.9 °F 13.4 °F 15.1 °F 81% 29.86 in - NNW 4.6 mph - N/A   Unknown
10:56 PM 21.9 °F 17.2 °F 16.0 °F 78% 29.86 in - WNW 3.5 mph - N/A   Unknown
11:56 PM 23.0 °F 18.4 °F 18.0 °F 81% 29.83 in - NW 3.5 mph - N/A   Unknown